PST,Max TemperatureF,Mean TemperatureF,Min TemperatureF,Max Dew PointF,MeanDew PointF,Min DewpointF,Max Humidity, Mean Humidity, Min Humidity, Max Sea Level PressureIn, Mean Sea Level PressureIn, Min Sea Level PressureIn, Max VisibilityMiles, Mean VisibilityMiles, Min VisibilityMiles, Max Wind SpeedMPH, Mean Wind SpeedMPH, Max Gust SpeedMPH,PrecipitationIn, CloudCover, Events, WindDirDegrees
2013-1-1,55,45,35,30,22,16,75,38,23,30.22,30.15,30.11,10,9,7,6,2,,0.00,5,,202
2013-1-2,62,48,33,27,18,12,70,30,16,30.12,30.08,30.04,10,10,10,9,2,,0.00,0,,353
2013-1-3,64,50,35,25,16,9,56,26,12,30.17,30.13,30.09,10,10,10,9,2,,0.00,0,,259
2013-1-4,64,48,32,25,16,9,60,28,12,30.28,30.21,30.17,10,10,10,6,2,,0.00,0,,81
2013-1-5,64,47,30,27,18,12,70,33,14,30.29,30.22,30.17,10,10,10,9,3,,0.00,2,,73
2013-1-6,51,46,41,41,37,32,87,67,54,30.19,30.12,30.05,10,10,10,12,5,18,0.00,7,Rain,242
2013-1-7,60,52,44,28,22,16,53,30,19,30.12,30.04,30.00,10,10,10,15,9,22,0.00,1,,320
2013-1-8,73,58,42,36,30,21,57,32,19,30.11,30.07,30.03,10,10,10,8,2,,0.00,2,,60
2013-1-9,71,62,53,39,35,30,58,36,25,30.14,30.06,30.02,10,10,10,9,3,,0.00,5,,242
2013-1-10,51,48,44,45,34,18,87,61,34,29.96,29.92,29.88,10,8,3,16,6,24,0.00,6,Rain,242
2013-1-11,48,39,30,25,20,16,80,45,30,30.17,30.10,30.02,10,10,10,9,2,,0.00,1,,259
2013-1-12,51,40,30,21,14,5,69,35,15,30.15,30.09,30.05,10,10,10,6,1,,0.00,1,,232
2013-1-13,51,42,32,21,13,9,52,31,18,30.16,30.09,30.03,10,10,10,7,2,,0.00,1,,221
2013-1-14,48,42,35,30,-2,-8,53,17,10,30.28,30.24,30.19,10,10,10,25,18,38,0.00,1,,339
2013-1-15,59,42,26,25,15,9,64,30,19,30.43,30.36,30.30,10,10,10,7,0,,0.00,0,,200
2013-1-16,68,52,37,28,24,19,60,31,16,30.35,30.23,30.18,10,10,10,8,2,,0.00,1,,68
2013-1-17,71,55,39,25,18,12,49,22,11,30.23,30.16,30.10,10,10,10,16,2,23,0.00,0,,6
2013-1-18,73,54,35,27,20,16,56,25,12,30.19,30.13,30.09,10,10,10,9,3,,0.00,1,,340
2013-1-19,73,53,33,45,20,12,60,26,10,30.22,30.16,30.11,10,10,10,7,1,,0.00,0,,25
2013-1-20,75,55,35,23,17,9,52,22,10,30.17,30.11,30.04,10,10,10,9,4,,0.00,0,,36
2013-1-21,75,56,37,21,16,10,41,20,10,30.13,30.08,30.00,10,10,10,8,1,,0.00,0,,5
2013-1-22,78,56,33,23,17,12,48,18,9,30.14,30.08,30.03,10,10,10,4,0,,0.00,4,,150
2013-1-23,75,62,48,37,31,23,58,30,18,30.11,30.08,30.04,10,10,10,10,2,,0.00,7,,236
2013-1-24,64,58,51,54,51,45,94,80,64,30.23,30.16,30.12,10,8,2,7,2,,0.00,6,Rain,52
2013-1-25,59,56,53,55,54,52,100,92,82,30.17,30.06,29.97,10,7,5,7,2,,0.00,8,Rain,62
2013-1-26,62,58,53,55,54,52,94,86,72,29.97,29.94,29.91,10,8,5,12,2,,0.00,8,Rain,255
2013-1-27,57,52,46,52,42,37,94,67,51,30.01,29.98,29.95,10,9,4,16,7,21,0.00,7,Rain,160
2013-1-28,55,47,39,36,29,23,87,49,30,30.09,30.07,30.06,10,10,10,10,3,21,0.00,4,,304
2013-1-29,55,44,33,37,32,28,81,55,38,30.22,30.18,30.14,10,10,10,7,1,,0.00,6,,251
2013-1-30,66,52,37,39,37,34,87,56,35,30.34,30.27,30.21,10,10,10,9,2,,0.00,1,,188
2013-1-31,71,56,42,39,36,32,81,45,23,30.24,30.18,30.12,10,10,10,7,3,,0.00,1,,95